When you browse on this site, cookies collect data to enhance your experience and personalize the content and advertising you see.
Visit our Privacy Policy to learn more. By continuing to use the site, you agree to this use of cookies and data.
  • In Hungary
  • List of Countries
  • For 7 days
  • Water Temperature
  • Satellite Maps
  • Weather Map
  • News
  • Weather Widgets
  • user-avatar
    Login

    Hourly Weather Armagh

    Today, 17 January, Thursday

    Time Temperature Precipitation Wind Pressure Humidity
    00:00 +1°C° 0 mm 5 mps 750 mmHg 84%
    01:00 0°C° 0 mm 5 mps 751 mmHg 81%
    02:00 -1°C° 0 mm 5 mps 752 mmHg 78%
    03:00 -1°C° 0 mm 5 mps 753 mmHg 75%
    04:00 -1°C° 0 mm 4 mps 754 mmHg 76%
    05:00 -2°C° 0 mm 4 mps 755 mmHg 77%
    06:00 -1°C° 0 mm 3 mps 756 mmHg 78%
    07:00 -1°C° 0 mm 3 mps 756 mmHg 79%
    08:00 -1°C° 0 mm 3 mps 757 mmHg 81%
    09:00 -2°C° 0 mm 2 mps 757 mmHg 82%
    10:00 +1°C° 0 mm 2 mps 758 mmHg 78%
    11:00 +2°C° 0 mm 2 mps 758 mmHg 73%
    12:00 +3°C° 0 mm 2 mps 759 mmHg 69%
    13:00 +4°C° 0 mm 1 mps 758 mmHg 71%
    14:00 +5°C° 0 mm 1 mps 758 mmHg 72%
    15:00 +5°C° 0 mm 1 mps 758 mmHg 73%
    16:00 +4°C° 0 mm 1 mps 758 mmHg 76%
    17:00 +3°C° 0 mm 1 mps 758 mmHg 78%
    18:00 +2°C° 0 mm 1 mps 758 mmHg 80%
    19:00 +2°C° 0 mm 1 mps 757 mmHg 80%
    20:00 +1°C° 0 mm 2 mps 757 mmHg 80%
    21:00 +1°C° 0 mm 2 mps 757 mmHg 80%
    22:00 0°C° 0 mm 3 mps 756 mmHg 77%
    23:00 +1°C° 0 mm 3 mps 756 mmHg 74%

    Tomorrow, 18 January, Friday

    Time Temperature Precipitation Wind Pressure Humidity
    00:00 0°C° 0 mm 4 mps 755 mmHg 71%
    01:00 0°C° 0 mm 5 mps 754 mmHg 71%
    02:00 +1°C° 0 mm 5 mps 754 mmHg 72%
    03:00 +1°C° 0 mm 6 mps 753 mmHg 73%
    04:00 +1°C° 0.4 mm 6 mps 752 mmHg 77%
    05:00 +1°C° 0.4 mm 6 mps 751 mmHg 81%
    06:00 +2°C° 0.4 mm 6 mps 751 mmHg 86%
    07:00 +2°C° 0.3 mm 7 mps 750 mmHg 87%
    08:00 +2°C° 0.3 mm 7 mps 750 mmHg 89%
    09:00 +3°C° 0.3 mm 7 mps 749 mmHg 90%
    10:00 +3°C° 0.1 mm 6 mps 749 mmHg 92%
    11:00 +5°C° 0.1 mm 5 mps 749 mmHg 93%
    12:00 +5°C° 0.1 mm 3 mps 748 mmHg 94%
    13:00 +5°C° 0 mm 3 mps 748 mmHg 94%
    14:00 +5°C° 0 mm 3 mps 748 mmHg 94%
    15:00 +5°C° 0 mm 3 mps 747 mmHg 93%
    16:00 +5°C° 0 mm 3 mps 747 mmHg 94%
    17:00 +4°C° 0 mm 3 mps 747 mmHg 95%
    18:00 +4°C° 0 mm 3 mps 747 mmHg 96%
    19:00 +4°C° 0.1 mm 3 mps 747 mmHg 96%
    20:00 +4°C° 0.1 mm 3 mps 747 mmHg 96%
    21:00 +4°C° 0.1 mm 3 mps 747 mmHg 97%
    22:00 +4°C° 0 mm 3 mps 747 mmHg 97%
    23:00 +4°C° 0 mm 3 mps 747 mmHg 97%

    Day after tomorrow, 19 January, Saturday

    Time Temperature Precipitation Wind Pressure Humidity
    00:00 +4°C° 0 mm 3 mps 746 mmHg 97%
    01:00 +4°C° 0.8 mm 3 mps 746 mmHg 97%
    02:00 +4°C° 0.8 mm 3 mps 746 mmHg 97%
    03:00 +4°C° 0.8 mm 3 mps 746 mmHg 97%
    04:00 +4°C° 0.6 mm 3 mps 746 mmHg 97%
    05:00 +4°C° 0.6 mm 3 mps 746 mmHg 97%
    06:00 +5°C° 0.6 mm 3 mps 746 mmHg 96%
    07:00 +4°C° 0 mm 3 mps 746 mmHg 97%
    08:00 +4°C° 0 mm 3 mps 747 mmHg 97%
    09:00 +4°C° 0 mm 3 mps 747 mmHg 97%
    10:00 +4°C° 0 mm 3 mps 747 mmHg 95%
    11:00 +5°C° 0 mm 3 mps 747 mmHg 94%
    12:00 +6°C° 0 mm 4 mps 748 mmHg 93%
    13:00 +7°C° 0 mm 3 mps 748 mmHg 92%
    14:00 +7°C° 0 mm 3 mps 748 mmHg 92%
    15:00 +8°C° 0 mm 3 mps 748 mmHg 91%
    16:00 +7°C° 0 mm 3 mps 749 mmHg 93%
    17:00 +5°C° 0 mm 3 mps 749 mmHg 94%
    18:00 +4°C° 0 mm 3 mps 750 mmHg 96%
    19:00 +5°C° 0.1 mm 3 mps 750 mmHg 95%
    20:00 +5°C° 0.1 mm 4 mps 751 mmHg 94%
    21:00 +6°C° 0.1 mm 5 mps 752 mmHg 94%
    22:00 +5°C° 0.1 mm 5 mps 752 mmHg 91%
    23:00 +3°C° 0.1 mm 6 mps 753 mmHg 89%

    20 January, Sunday

    Time Temperature Precipitation Wind Pressure Humidity
    00:00 +3°C° 0.1 mm 7 mps 754 mmHg 87%
    01:00 +2°C° 0 mm 6 mps 755 mmHg 87%
    02:00 +1°C° 0 mm 5 mps 755 mmHg 87%
    03:00 +1°C° 0 mm 5 mps 756 mmHg 86%
    04:00 0°C° 0 mm 5 mps 757 mmHg 86%
    05:00 0°C° 0 mm 4 mps 757 mmHg 86%
    06:00 0°C° 0 mm 4 mps 758 mmHg 86%
    07:00 0°C° 0 mm 4 mps 759 mmHg 86%
    08:00 0°C° 0 mm 4 mps 760 mmHg 85%
    09:00 -1°C° 0 mm 4 mps 761 mmHg 85%
    10:00 0°C° 0 mm 4 mps 761 mmHg 82%
    11:00 +3°C° 0 mm 4 mps 762 mmHg 78%
    12:00 +3°C° 0 mm 5 mps 762 mmHg 75%
    13:00 +4°C° 0 mm 4 mps 763 mmHg 75%
    14:00 +4°C° 0 mm 4 mps 763 mmHg 75%
    15:00 +4°C° 0 mm 3 mps 763 mmHg 74%
    16:00 +3°C° 0 mm 3 mps 764 mmHg 78%
    17:00 +2°C° 0 mm 3 mps 764 mmHg 82%
    18:00 0°C° 0 mm 3 mps 765 mmHg 86%
    19:00 0°C° 0 mm 3 mps 765 mmHg 87%
    20:00 -1°C° 0 mm 2 mps 765 mmHg 89%
    21:00 -1°C° 0 mm 2 mps 766 mmHg 90%
    22:00 -1°C° 0 mm 2 mps 765 mmHg 90%
    23:00 -1°C° 0 mm 2 mps 765 mmHg 90%

    21 January, Monday

    Time Temperature Precipitation Wind Pressure Humidity
    00:00 -1°C° 0 mm 2 mps 765 mmHg 90%
    01:00 -1°C° 0 mm 2 mps 765 mmHg 89%
    02:00 -1°C° 0 mm 2 mps 764 mmHg 89%
    03:00 -1°C° 0 mm 3 mps 763 mmHg 88%
    04:00 -1°C° 0 mm 3 mps 763 mmHg 86%
    05:00 -1°C° 0 mm 4 mps 762 mmHg 84%
    06:00 0°C° 0 mm 4 mps 761 mmHg 82%
    07:00 0°C° 0.1 mm 5 mps 760 mmHg 81%
    08:00 +1°C° 0.1 mm 6 mps 759 mmHg 81%
    09:00 +1°C° 0.1 mm 6 mps 758 mmHg 81%
    10:00 +2°C° 0.2 mm 7 mps 756 mmHg 82%
    11:00 +1°C° 0.2 mm 8 mps 755 mmHg 83%
    12:00 +2°C° 0.2 mm 8 mps 753 mmHg 84%
    13:00 +2°C° 1.5 mm 8 mps 752 mmHg 87%
    14:00 +3°C° 1.5 mm 7 mps 750 mmHg 90%
    15:00 +3°C° 1.5 mm 6 mps 749 mmHg 93%
    16:00 +2°C° 0.4 mm 5 mps 748 mmHg 92%
    17:00 +1°C° 0.4 mm 4 mps 748 mmHg 92%
    18:00 0°C° 0.4 mm 4 mps 747 mmHg 92%
    19:00 0°C° 0 mm 4 mps 746 mmHg 91%
    20:00 -1°C° 0 mm 4 mps 746 mmHg 90%
    21:00 -1°C° 0 mm 4 mps 745 mmHg 89%
    22:00 -1°C° 0 mm 4 mps 745 mmHg 89%
    23:00 -1°C° 0 mm 4 mps 745 mmHg 88%

    22 January, Tuesday

    Time Temperature Precipitation Wind Pressure Humidity
    00:00 -1°C° 0 mm 4 mps 745 mmHg 88%
    01:00 -1°C° 0 mm 4 mps 744 mmHg 88%
    02:00 -1°C° 0 mm 4 mps 744 mmHg 87%
    03:00 -1°C° 0 mm 4 mps 744 mmHg 87%
    04:00 -1°C° 0 mm 4 mps 744 mmHg 87%
    05:00 -2°C° 0 mm 5 mps 744 mmHg 88%
    06:00 -2°C° 0 mm 5 mps 744 mmHg 88%
    07:00 -1°C° 0 mm 5 mps 744 mmHg 87%
    08:00 -1°C° 0 mm 5 mps 744 mmHg 85%
    09:00 -1°C° 0 mm 5 mps 744 mmHg 84%
    10:00 0°C° 0 mm 5 mps 744 mmHg 82%
    11:00 +1°C° 0 mm 5 mps 744 mmHg 79%
    12:00 +2°C° 0 mm 5 mps 743 mmHg 76%
    13:00 +2°C° 0 mm 5 mps 743 mmHg 76%
    14:00 +2°C° 0 mm 5 mps 742 mmHg 75%
    15:00 +2°C° 0 mm 5 mps 742 mmHg 74%
    16:00 +1°C° 0 mm 5 mps 741 mmHg 79%
    17:00 0°C° 0 mm 4 mps 740 mmHg 83%
    18:00 -1°C° 0 mm 3 mps 740 mmHg 87%
    19:00 -1°C° 0.2 mm 4 mps 739 mmHg 85%
    20:00 -1°C° 0.2 mm 4 mps 739 mmHg 84%
    21:00 0°C° 0.2 mm 5 mps 739 mmHg 82%
    22:00 0°C° 0.5 mm 5 mps 739 mmHg 84%
    23:00 -1°C° 0.5 mm 6 mps 739 mmHg 86%
    Show more